Volver al catálogo

CZ-6A DEB

ActivoSSO
NORAD 54557·DEBRIS·🇨🇳 China

Lanzado Nov 11, 2022 desde Taiyuan Satellite Launch Center

Loading…

Próximos Pases (próximas 24 horas)

TLE

ActualizadoSource: Space-Track

Época: Sep 14, 2026, 01:35 UTC

1 54557U 22151LH  26257.06630509  .00000506  00000-0  13403-3 0  9993
2 54557  98.5704 310.8589 0132117  28.0223 332.8001 14.48210423202355

Sigue CZ-6A DEB en tiempo real con AllMySat

Download on the App Store